Date,TemperatureHighF,TemperatureAvgF,TemperatureLowF,DewpointHighF,DewpointAvgF,DewpointLowF,HumidityHigh,HumidityAvg,HumidityLow,PressureMaxIn,PressureMinIn,WindSpeedMaxMPH,WindSpeedAvgMPH,GustSpeedMaxMPH,PrecipitationSumIn
2013-10-1,68,62,56,-100,-100,-100,0,0,100,29.97,29.89,16,1,19,0.00
2013-10-2,69,62,56,-100,-100,-100,0,0,100,29.96,29.88,13,1,17,0.00
2013-10-3,69,62,54,-100,-100,-100,0,0,100,30.02,29.91,22,3,28,0.00
2013-10-4,74,67,61,-100,-100,-100,0,0,100,30.07,29.93,16,1,31,0.00
2013-10-5,76,68,61,-100,-100,-100,0,0,100,30.17,30.07,19,0,26,0.00
2013-10-6,77,68,61,-100,-100,-100,0,0,100,30.09,29.97,11,0,16,0.00
2013-10-7,76,68,60,-100,-100,-100,0,0,100,29.97,29.85,14,0,20,0.00
2013-10-8,70,63,57,-100,-100,-100,0,0,100,29.86,29.67,14,0,22,0.00
2013-10-9,65,59,53,-100,-100,-100,0,0,100,29.71,29.56,16,0,17,0.00
2013-10-10,66,60,55,-100,-100,-100,0,0,100,29.95,29.70,9,0,17,0.00
2013-10-11,64,56,51,-100,-100,-100,0,0,100,30.01,29.92,16,0,20,0.00
2013-10-12,65,56,50,-100,-100,-100,0,0,100,29.94,29.85,12,0,18,0.00
2013-10-13,67,59,52,-100,-100,-100,0,0,100,30.02,29.85,18,1,25,0.00
2013-10-14,70,62,54,-100,-100,-100,0,0,100,30.07,29.97,15,0,20,0.00
2013-10-15,73,64,56,-100,-100,-100,0,0,100,30.02,29.93,14,0,20,0.00
2013-10-16,75,66,59,-100,-100,-100,0,0,100,30.08,29.96,11,0,21,0.00
2013-10-17,74,66,59,-100,-100,-100,0,0,100,30.06,29.95,17,0,18,0.00
2013-10-18,75,66,57,-100,-100,-100,0,0,100,30.03,29.94,11,0,14,0.00
2013-10-19,76,66,58,-100,-100,-100,0,0,100,30.06,29.97,15,0,18,0.00
2013-10-20,75,66,57,-100,-100,-100,0,0,100,29.99,29.88,20,0,22,0.00
2013-10-21,71,61,53,-100,-100,-100,0,0,100,29.96,29.88,13,0,17,0.00
2013-10-22,72,61,50,-100,-100,-100,0,0,100,29.96,29.88,15,0,16,0.00
2013-10-23,67,58,52,-100,-100,-100,0,0,100,29.91,29.84,11,0,16,0.00
2013-10-24,60,54,50,-100,-100,-100,0,0,100,30.03,29.89,13,0,15,0.00
2013-10-25,65,57,50,-100,-100,-100,0,0,100,30.10,30.03,15,0,17,0.00
2013-10-26,71,61,53,-100,-100,-100,0,0,100,30.08,29.98,0,0,0,0.00
2013-10-27,62,55,52,-100,-100,-100,0,0,100,29.98,29.57,31,4,57,0.00
2013-10-28,58,54,50,-100,-100,-100,0,0,100,29.77,29.58,38,1,38,0.00
2013-10-29,59,55,51,-100,-100,-100,0,0,100,29.98,29.77,22,0,25,0.00
2013-10-30,61,54,47,-100,-100,-100,0,0,100,30.07,29.97,0,0,0,0.00
2013-10-31,65,56,49,-100,-100,-100,0,0,100,30.10,30.01,13,0,16,0.00